| time (UTC) | temp F | wind direction | speed MPH | gust MPH | rain 1hr in | rain 24hr in | rain mn in | humidity % | barometer mb |
| 20260508081808 | 55 | 136 | 0.0 | 0.0 | 0.00 | 0.00 | 0.00 | 74 | 1014.8 |
| 20260508080533 | 55 | 151 | 0.0 | 0.0 | 0.00 | 0.00 | 0.00 | 74 | 1014.7 |
| 20260508075336 | 55 | 149 | 0.0 | 0.0 | 0.00 | 0.00 | 0.00 | 74 | 1014.7 |
| 20260508072749 | 55 | 139 | 0.0 | 0.0 | 0.00 | 0.00 | 0.00 | 74 | 1014.5 |
| 20260508071614 | 56 | 140 | 0.0 | 0.0 | 0.00 | 0.00 | 0.00 | 72 | 1014.5 |
| 20260508070435 | 56 | 141 | 0.0 | 0.0 | 0.00 | 0.00 | 0.00 | 72 | 1014.5 |
| 20260508063834 | 57 | 130 | 0.0 | 0.0 | 0.00 | 0.00 | 0.00 | 70 | 1014.5 |
| 20260508062643 | 58 | 137 | 0.0 | 3.0 | 0.00 | 0.00 | 0.00 | 68 | 1014.5 |
| 20260508061505 | 58 | 140 | 0.0 | 0.0 | 0.00 | 0.00 | 0.00 | 67 | 1014.5 |
| 20260508060245 | 59 | 132 | 0.0 | 4.0 | 0.00 | 0.00 | 0.00 | 66 | 1014.3 |
| 20260508055058 | 59 | 144 | 0.0 | 0.0 | 0.00 | 0.00 | 0.00 | 64 | 1014.2 |
| 20260508053841 | 60 | 134 | 0.0 | 0.0 | 0.00 | 0.00 | 0.00 | 63 | 1014.3 |
| 20260508051345 | 61 | 163 | 0.0 | 0.0 | 0.00 | 0.00 | 0.00 | 59 | 1014.3 |
| 20260508050156 | 62 | 152 | 0.0 | 1.0 | 0.00 | 0.00 | 0.00 | 59 | 1014.3 |
| 20260508044946 | 62 | 134 | 0.0 | 0.0 | 0.00 | 0.00 | 0.00 | 57 | 1014.3 |
| 20260508043706 | 63 | 138 | 0.0 | 0.0 | 0.00 | 0.00 | 0.00 | 56 | 1014.3 |
| 20260508041104 | 64 | 185 | 0.0 | 0.0 | 0.00 | 0.00 | 0.00 | 52 | 1014.2 |
| 20260508035832 | 64 | 182 | 0.0 | 0.0 | 0.00 | 0.00 | 0.00 | 51 | 1014.0 |
| 20260508034635 | 65 | 148 | 0.0 | 0.0 | 0.00 | 0.00 | 0.00 | 51 | 1014.0 |
| 20260508033415 | 65 | 167 | 0.0 | 0.0 | 0.00 | 0.00 | 0.00 | 51 | 1013.9 |
| 20260508032210 | 65 | 198 | 0.0 | 0.0 | 0.00 | 0.00 | 0.00 | 51 | 1013.8 |
| 20260508031024 | 66 | 198 | 0.0 | 0.0 | 0.00 | 0.00 | 0.00 | 50 | 1013.7 |
| 20260508025823 | 67 | 211 | 0.0 | 0.0 | 0.00 | 0.00 | 0.00 | 47 | 1013.6 |
| 20260508024632 | 68 | 256 | 0.0 | 0.0 | 0.00 | 0.00 | 0.00 | 44 | 1013.4 |
| 20260508022207 | 70 | 232 | 0.0 | 0.0 | 0.00 | 0.00 | 0.00 | 43 | 1013.3 |
| 20260508020927 | 70 | 231 | 0.0 | 1.0 | 0.00 | 0.00 | 0.00 | 43 | 1013.4 |
| 20260508014407 | 71 | 240 | 0.0 | 0.0 | 0.00 | 0.00 | 0.00 | 42 | 1013.5 |
| 20260508013225 | 71 | 244 | 0.0 | 7.0 | 0.00 | 0.00 | 0.00 | 41 | 1013.5 |
| 20260508010725 | 71 | 232 | 0.0 | 0.0 | 0.00 | 0.00 | 0.00 | 42 | 1013.6 |
| 20260508004156 | 71 | 245 | 0.0 | 8.0 | 0.00 | 0.00 | 0.00 | 42 | 1013.8 |
| 20260508003017 | 71 | 240 | 1.0 | 6.0 | 0.00 | 0.00 | 0.00 | 44 | 1013.8 |
| 20260508001757 | 71 | 237 | 0.0 | 12.0 | 0.00 | 0.00 | 0.00 | 42 | 1013.9 |
| 20260507233912 | 70 | 191 | 2.0 | 11.0 | 0.00 | 0.00 | 0.00 | 43 | 1014.0 |
| 20260507232717 | 70 | 236 | 1.0 | 7.0 | 0.00 | 0.00 | 0.00 | 44 | 1014.0 |
| 20260507231534 | 70 | 273 | 1.0 | 8.0 | 0.00 | 0.00 | 0.00 | 45 | 1014.1 |
| 20260507230339 | 70 | 206 | 3.0 | 13.0 | 0.00 | 0.00 | 0.00 | 44 | 1014.3 |
| 20260507223753 | 70 | 271 | 1.0 | 9.0 | 0.00 | 0.00 | 0.00 | 45 | 1014.5 |
| 20260507222527 | 69 | 271 | 1.0 | 9.0 | 0.00 | 0.00 | 0.00 | 44 | 1014.5 |
| 20260507221335 | 69 | 292 | 0.0 | 12.0 | 0.00 | 0.00 | 0.00 | 44 | 1014.7 |
| 20260507220127 | 69 | 257 | 3.0 | 11.0 | 0.00 | 0.00 | 0.00 | 44 | 1014.7 |
| 20260507214949 | 69 | 261 | 1.0 | 9.0 | 0.00 | 0.00 | 0.00 | 46 | 1014.8 |
| 20260507213738 | 69 | 215 | 1.0 | 9.0 | 0.00 | 0.00 | 0.00 | 47 | 1014.8 |
| 20260507212535 | 68 | 275 | 1.0 | 0.0 | 0.00 | 0.00 | 0.00 | 45 | 1015.1 |
| 20260507211325 | 68 | 259 | 1.0 | 9.0 | 0.00 | 0.00 | 0.00 | 48 | 1015.2 |
| 20260507210113 | 68 | 200 | 0.0 | 3.0 | 0.00 | 0.00 | 0.00 | 48 | 1015.2 |
| 20260507204933 | 67 | 104 | 0.0 | 0.0 | 0.00 | 0.00 | 0.00 | 49 | 1015.3 |
| 20260507203751 | 68 | 247 | 0.0 | 0.0 | 0.00 | 0.00 | 0.00 | 49 | 1015.3 |
| 20260507202550 | 67 | 240 | 0.0 | 0.0 | 0.00 | 0.00 | 0.00 | 49 | 1015.4 |
| 20260507200039 | 66 | 265 | 0.0 | 0.0 | 0.00 | 0.00 | 0.00 | 50 | 1015.5 |
| 20260507193505 | 65 | 189 | 0.0 | 0.0 | 0.00 | 0.00 | 0.00 | 53 | 1015.5 |
| 20260507192234 | 64 | 46 | 0.0 | 0.0 | 0.00 | 0.00 | 0.00 | 52 | 1015.6 |
| 20260507191022 | 64 | 193 | 0.0 | 1.0 | 0.00 | 0.00 | 0.00 | 54 | 1015.6 |
| 20260507184416 | 63 | 105 | 0.0 | 11.0 | 0.00 | 0.00 | 0.00 | 54 | 1015.7 |
| 20260507183201 | 62 | 130 | 0.0 | 13.0 | 0.00 | 0.00 | 0.00 | 55 | 1015.7 |
| 20260507180640 | 62 | 103 | 1.0 | 12.0 | 0.00 | 0.00 | 0.00 | 56 | 1015.8 |
| 20260507175500 | 61 | 103 | 2.0 | 12.0 | 0.00 | 0.00 | 0.00 | 58 | 1015.9 |
| 20260507174229 | 61 | 192 | 1.0 | 11.0 | 0.00 | 0.00 | 0.00 | 57 | 1015.9 |
| 20260507173022 | 61 | 150 | 0.0 | 8.0 | 0.00 | 0.00 | 0.00 | 59 | 1015.9 |
| 20260507171755 | 60 | 171 | 1.0 | 13.0 | 0.00 | 0.00 | 0.00 | 59 | 1015.9 |
| 20260507170553 | 59 | 178 | 0.0 | 0.0 | 0.00 | 0.00 | 0.00 | 59 | 1015.9 |
| 20260507165322 | 58 | 171 | 1.0 | 9.0 | 0.00 | 0.00 | 0.00 | 61 | 1015.9 |
| 20260507164145 | 58 | 136 | 5.0 | 14.0 | 0.00 | 0.00 | 0.00 | 63 | 1016.0 |
| 20260507162908 | 58 | 145 | 3.0 | 14.0 | 0.00 | 0.00 | 0.00 | 63 | 1015.8 |
| 20260507161703 | 57 | 140 | 1.0 | 12.0 | 0.00 | 0.00 | 0.00 | 63 | 1016.0 |
| 20260507160437 | 57 | 144 | 1.0 | 11.0 | 0.00 | 0.00 | 0.00 | 64 | 1016.0 |
| 20260507152558 | 56 | 182 | 0.0 | 6.0 | 0.00 | 0.00 | 0.00 | 67 | 1016.4 |
| 20260507151406 | 55 | 165 | 0.0 | 11.0 | 0.00 | 0.00 | 0.00 | 68 | 1016.0 |
| 20260507144826 | 54 | 163 | 1.0 | 10.0 | 0.00 | 0.00 | 0.00 | 69 | 1015.9 |
| 20260507143610 | 54 | 141 | 0.0 | 7.0 | 0.00 | 0.00 | 0.00 | 70 | 1015.8 |
| 20260507142433 | 54 | 175 | 0.0 | 0.0 | 0.00 | 0.00 | 0.00 | 71 | 1015.5 |
| 20260507141221 | 53 | 159 | 0.0 | 7.0 | 0.00 | 0.00 | 0.00 | 71 | 1015.4 |
| 20260507140028 | 53 | 165 | 1.0 | 9.0 | 0.00 | 0.00 | 0.00 | 72 | 1015.4 |
| 20260507134758 | 53 | 165 | 0.0 | 1.0 | 0.00 | 0.00 | 0.00 | 73 | 1015.3 |
| 20260507130836 | 51 | 144 | 0.0 | 8.0 | 0.00 | 0.00 | 0.00 | 73 | 1014.8 |
| 20260507125617 | 51 | 145 | 0.0 | 0.0 | 0.00 | 0.00 | 0.00 | 73 | 1014.8 |
| 20260507123036 | 51 | 138 | 0.0 | 0.0 | 0.00 | 0.00 | 0.00 | 72 | 1014.5 |
| 20260507121811 | 51 | 140 | 0.0 | 0.0 | 0.00 | 0.00 | 0.00 | 71 | 1014.3 |
| 20260507115241 | 52 | 146 | 0.0 | 0.0 | 0.00 | 0.00 | 0.00 | 70 | 1014.0 |
| 20260507114031 | 52 | 139 | 0.0 | 0.0 | 0.00 | 0.00 | 0.00 | 69 | 1013.9 |
| 20260507112756 | 52 | 139 | 0.0 | 0.0 | 0.00 | 0.00 | 0.00 | 68 | 1013.8 |
| 20260507111518 | 53 | 139 | 0.0 | 0.0 | 0.00 | 0.00 | 0.00 | 65 | 1013.7 |
| 20260507110307 | 53 | 139 | 0.0 | 0.0 | 0.00 | 0.00 | 0.00 | 64 | 1013.6 |
| 20260507105040 | 54 | 137 | 0.0 | 0.0 | 0.00 | 0.00 | 0.00 | 63 | 1013.3 |
| 20260507102514 | 55 | 152 | 0.0 | 0.0 | 0.00 | 0.00 | 0.00 | 60 | 1013.1 |
| 20260507101310 | 55 | 154 | 0.0 | 0.0 | 0.00 | 0.00 | 0.00 | 59 | 1013.0 |
| 20260507100137 | 55 | 150 | 0.0 | 0.0 | 0.00 | 0.00 | 0.00 | 59 | 1012.9 |
| 20260507094900 | 55 | 153 | 0.0 | 0.0 | 0.00 | 0.00 | 0.00 | 57 | 1012.8 |
| 20260507093647 | 56 | 154 | 0.0 | 0.0 | 0.00 | 0.00 | 0.00 | 56 | 1012.6 |
| 20260507092411 | 56 | 152 | 0.0 | 0.0 | 0.00 | 0.00 | 0.00 | 56 | 1012.6 |
| 20260507091221 | 57 | 160 | 0.0 | 0.0 | 0.00 | 0.00 | 0.00 | 55 | 1012.5 |
| 20260507090007 | 57 | 161 | 0.0 | 0.0 | 0.00 | 0.00 | 0.00 | 55 | 1012.2 |
| 20260507084829 | 57 | 160 | 0.0 | 0.0 | 0.00 | 0.00 | 0.00 | 55 | 1012.2 |
| 20260507083606 | 58 | 159 | 0.0 | 0.0 | 0.00 | 0.00 | 0.00 | 55 | 1012.0 |